This is the latest recevied weather packets stored in our database for station/object GAPWX. If no packets are shown the sender has not sent any weather packets the latest 10 day(s).
| Time | Temp. | Humidity | Pressure | Rain* | Wind** | Luminosity | Snow |
|---|---|---|---|---|---|---|---|
| 1778003745 | 7.78° C | 73% | 1013.2 hPa | 12.95 mm | - | - | - |
| 1778003448 | 7.22° C | 74% | 1013.3 hPa | 12.19 mm | - | - | - |
| 1778001389 | 7.22° C | 75% | 1013 hPa | 7.87 mm | - | - | - |
| 1778001032 | 7.22° C | 75% | 1012.9 hPa | 7.37 mm | - | - | - |
| 1778000730 | 6.67° C | 75% | 1013 hPa | 7.11 mm | - | - | - |
| 1778000491 | 6.67° C | 76% | 1013 hPa | 6.6 mm | - | - | - |
| 1777999825 | 5.56° C | 76% | 1013 hPa | 5.84 mm | - | - | - |
| 1777999223 | 4.44° C | 77% | 1013 hPa | 4.83 mm | - | - | - |
| 1777998619 | 4.44° C | 76% | 1013.1 hPa | 4.57 mm | - | - | - |
| 1777998319 | 3.89° C | 76% | 1013.1 hPa | 4.32 mm | - | - | - |
| 1777998017 | 3.89° C | 76% | 1013.2 hPa | 4.06 mm | - | - | - |
| 1777997414 | 3.89° C | 76% | 1013 hPa | 3.81 mm | - | - | - |
| 1777997114 | 3.89° C | 76% | 1013 hPa | 3.81 mm | - | - | - |
| 1777996816 | 3.33° C | 76% | 1012.9 hPa | 3.56 mm | - | - | - |
| 1777996513 | 3.33° C | 76% | 1013 hPa | 3.3 mm | - | - | - |
| 1777995004 | 2.78° C | 77% | 1012.6 hPa | 2.29 mm | - | - | - |
| 1777994703 | 2.78° C | 77% | 1012.5 hPa | 2.29 mm | - | - | - |
| 1777994401 | 2.78° C | 77% | 1012.5 hPa | 2.03 mm | - | - | - |
| 1777993497 | 2.22° C | 76% | 1012.5 hPa | 1.78 mm | - | - | - |
| 1777992895 | 2.22° C | 77% | 1012.6 hPa | 1.52 mm | - | - | - |
| 1777992593 | 2.22° C | 76% | 1012.4 hPa | 1.52 mm | - | - | - |
| 1777992292 | 2.22° C | 76% | 1012.5 hPa | 1.52 mm | - | - | - |
| 1777991088 | 1.67° C | 76% | 1012.4 hPa | 1.02 mm | - | - | - |
| 1777990785 | 1.67° C | 76% | 1012.4 hPa | 1.02 mm | - | - | - |
| 1777989881 | 1.67° C | 76% | 1012.3 hPa | 0.76 mm | - | - | - |
* Rain since midnight (hover to see other rain measurements)
** Current wind speed in m/s (hover to see current wind gust speed)